Погода в Светлице

Россия / Тверская область     57°14′15″N   33°04′12″E
темп.,
°C
ветер,
м/с
пор.,
м/с
влажн.,
%
обл.,
%
осадки,
мм/ч
давл.,
гПа
погр.,
м
19 мая, ср
ср1900:00+16вюв3118797 0.0 1003284
03:00+16вюв311849 0.1 1003317
06:00+16вюв412875 0.0 1002396
09:00+20юв5106910 0.0 1001829
12:00+20юв6127134 1.3 10021478
15:00+22ю6949100 1.9 10032042
18:00+20ююв49696 0.7 10031263
21:00+15ююв269099 0.7 1005165
20 мая, чт
чт2000:00+13юв2698100 0.0 1005147
03:00+12юв249866 0.0 100577
06:00+14всв2593100 0.0 1004192
09:00+14всв2895100 0.9 1002498
12:00+18юв696675 0.4 10011555
15:00+19юв4852100 0.5 10011867
18:00+17ююв367414 1.3 10011043
21:00+12з3695100 4.1 1001210
21 мая, пт
пт2100:00+10зсз5997100 0.1 1003591
03:00+8зсз5129699 0.7 1005796
06:00+9з41093100 0.0 1007718
09:00+12з48665 0.0 1009902
12:00+15зюз57435 0.0 10101800
15:00+16зюз6939100 0.0 10112723
18:00+15з584525 0.0 10122271
21:00+9юз27714 0.1 1014152
22 мая, сб
сб2200:00+7юз3108226 0.0 1016219
03:00+5юз27910 0.0 1017131
06:00+7ююз388269 0.0 1017222
09:00+13ююз4757100 0.0 1016641
12:00+17ююз583998 0.0 10152049
15:00+19ююз5937100 0.0 10142498
18:00+17юз4948100 0.0 10131783
21:00+12ююз277139 0.0 1014142
23 мая, вс
вс2300:00+9ю268795 0.0 1014127
03:00+9ююв2789100 0.0 1014145
06:00+10ююв31079100 0.0 1013287
09:00+15ююв4967100 0.0 1010579
12:00+18юв5747100 0.0 10081518
15:00+18ююв5749100 0.0 10051678
18:00+12св1197100 1.8 100340
21:00+11вюв1398100 2.9 1000121